W2GM Weather Reports


Display with metric or nautical units.
time (UTC)temp
F
wind
direction
speed
MPH
gust
MPH
rain 1hr
in
rain 24hr
in
rain mn
in
humidity
%
barometer
mb
20260503231922 59 249 0.0 4.0 0.00 0.00 0.00 35 1010.3
20260503231839 59 249 0.0 4.0 0.00 0.00 0.00 34 1010.4
20260503231622 59 249 0.0 4.0 0.00 0.00 0.00 35 1010.4
20260503231524 59 285 0.0 4.0 0.00 0.00 0.00 35 1010.4
20260503231422 59 285 1.0 4.0 0.00 0.00 0.00 36 1010.3
20260503231323 59 286 1.0 4.0 0.00 0.00 0.00 36 1010.4
20260503231222 59 286 1.0 4.0 0.00 0.00 0.00 35 1010.3
20260503231122 59 286 1.0 4.0 0.00 0.00 0.00 36 1010.3
20260503231024 59 286 1.0 4.0 0.00 0.00 0.00 34 1010.3
20260503230924 59 286 1.0 4.0 0.00 0.00 0.00 34 1010.2
20260503230824 59 286 2.0 5.0 0.00 0.00 0.00 34 1010.3
20260503230724 59 286 2.0 5.0 0.00 0.00 0.00 34 1010.3
20260503230623 59 286 2.0 7.0 0.00 0.00 0.00 33 1010.2
20260503230523 59 279 2.0 7.0 0.00 0.00 0.00 34 1010.2
20260503230424 59 242 2.0 7.0 0.00 0.00 0.00 33 1010.3
20260503230324 59 242 2.0 7.0 0.00 0.00 0.00 33 1010.3
20260503230223 59 242 2.0 7.0 0.00 0.00 0.00 33 1010.3
20260503230139 60 242 2.0 7.0 0.00 0.00 0.00 33 1010.3
20260503225922 59 239 2.0 7.0 0.00 0.00 0.00 33 1010.2
20260503225825 59 247 2.0 7.0 0.00 0.00 0.00 33 1010.2
20260503225809 59 257 2.0 7.0 0.00 0.00 0.00 33 1010.2
20260503225322 59 245 2.0 9.0 0.00 0.00 0.00 33 1010.2
20260503225255 59 245 2.0 9.0 0.00 0.00 0.00 33 1010.2
20260503224938 59 246 3.0 9.0 0.00 0.00 0.00 33 1010.2
20260503224740 59 318 3.0 9.0 0.00 0.00 0.00 33 1010.2
20260503224523 59 317 3.0 11.0 0.00 0.00 0.00 32 1010.2
20260503224423 59 272 3.0 11.0 0.00 0.00 0.00 33 1010.2
20260503224325 59 244 3.0 11.0 0.00 0.00 0.00 32 1010.1
20260503224224 60 263 3.0 11.0 0.00 0.00 0.00 32 1010.1
20260503224139 60 269 4.0 11.0 0.00 0.00 0.00 32 1010.1
20260503223922 60 285 4.0 12.0 0.00 0.00 0.00 34 1010.0
20260503223824 60 328 4.0 12.0 0.00 0.00 0.00 33 1010.0
20260503223722 60 270 4.0 12.0 0.00 0.00 0.00 32 1010.1
20260503223623 60 323 4.0 12.0 0.00 0.00 0.00 33 1010.1
20260503223522 60 268 4.0 12.0 0.00 0.00 0.00 32 1010.0
20260503223455 60 329 4.0 12.0 0.00 0.00 0.00 32 1010.1
20260503223124 60 251 4.0 12.0 0.00 0.00 0.00 33 1009.9
20260503223024 60 252 5.0 12.0 0.00 0.00 0.00 31 1010.0
20260503222924 60 246 4.0 12.0 0.00 0.00 0.00 31 1010.0
20260503222824 60 265 4.0 11.0 0.00 0.00 0.00 32 1010.0
20260503222722 60 246 4.0 11.0 0.00 0.00 0.00 32 1010.1
20260503222624 60 302 4.0 11.0 0.00 0.00 0.00 32 1010.0
20260503222525 60 272 4.0 11.0 0.00 0.00 0.00 32 1010.0
20260503222440 60 253 4.0 11.0 0.00 0.00 0.00 31 1010.0
20260503222224 60 246 3.0 12.0 0.00 0.00 0.00 32 1010.1
20260503222122 60 326 4.0 12.0 0.00 0.00 0.00 31 1010.1
20260503222023 60 304 4.0 12.0 0.00 0.00 0.00 33 1010.0
20260503221923 60 275 4.0 12.0 0.00 0.00 0.00 32 1010.1
20260503221823 60 261 3.0 12.0 0.00 0.00 0.00 32 1010.1
20260503221722 60 239 3.0 12.0 0.00 0.00 0.00 31 1010.1
20260503221639 61 271 3.0 12.0 0.00 0.00 0.00 31 1010.1
20260503221439 61 273 3.0 12.0 0.00 0.00 0.00 31 1010.0
20260503221222 61 28 2.0 10.0 0.00 0.00 0.00 30 1010.0
20260503221123 61 325 2.0 6.0 0.00 0.00 0.00 32 1010.0
20260503221023 61 241 2.0 7.0 0.00 0.00 0.00 31 1010.0
20260503220954 61 240 2.0 8.0 0.00 0.00 0.00 32 1010.0
20260503220638 61 264 2.0 8.0 0.00 0.00 0.00 33 1010.0
20260503220425 61 244 2.0 8.0 0.00 0.00 0.00 32 1010.0
20260503220323 61 244 3.0 10.0 0.00 0.00 0.00 33 1009.9
20260503220222 61 244 3.0 10.0 0.00 0.00 0.00 31 1010.0
20260503220123 61 230 3.0 10.0 0.00 0.00 0.00 30 1010.0
20260503220023 61 236 3.0 10.0 0.00 0.00 0.00 32 1010.0
20260503215923 61 265 3.0 10.0 0.00 0.00 0.00 31 1010.0
20260503215823 61 265 3.0 10.0 0.00 0.00 0.00 32 1010.0
20260503215724 61 265 3.0 10.0 0.00 0.00 0.00 32 1010.0
20260503215624 61 327 3.0 10.0 0.00 0.00 0.00 32 1010.0
20260503215523 61 306 3.0 10.0 0.00 0.00 0.00 32 1010.0
20260503215424 61 306 3.0 15.0 0.00 0.00 0.00 31 1010.0
20260503215323 60 327 3.0 15.0 0.00 0.00 0.00 31 1010.0
20260503215224 60 321 4.0 15.0 0.00 0.00 0.00 31 1010.0
20260503215123 60 254 4.0 15.0 0.00 0.00 0.00 31 1010.0
20260503215024 60 307 4.0 15.0 0.00 0.00 0.00 31 1010.0
20260503214922 60 273 4.0 15.0 0.00 0.00 0.00 32 1010.0
20260503214822 60 311 4.0 15.0 0.00 0.00 0.00 32 1010.0
20260503214724 60 346 4.0 15.0 0.00 0.00 0.00 31 1010.1
20260503214624 60 227 5.0 15.0 0.00 0.00 0.00 30 1010.0
20260503214523 60 247 5.0 15.0 0.00 0.00 0.00 31 1010.0
20260503214424 60 240 4.0 14.0 0.00 0.00 0.00 31 1010.0
20260503214323 60 254 4.0 14.0 0.00 0.00 0.00 31 1010.0
20260503214240 60 265 4.0 14.0 0.00 0.00 0.00 32 1010.1
20260503214023 60 283 4.0 14.0 0.00 0.00 0.00 31 1010.1
20260503213924 60 277 4.0 14.0 0.00 0.00 0.00 31 1010.1
20260503213839 60 334 3.0 14.0 0.00 0.00 0.00 32 1010.1
20260503213623 60 242 3.0 14.0 0.00 0.00 0.00 31 1010.1
20260503213539 60 277 3.0 12.0 0.00 0.00 0.00 32 1010.0
20260503213322 60 242 4.0 14.0 0.00 0.00 0.00 32 1010.0
20260503213222 60 238 4.0 14.0 0.00 0.00 0.00 31 1010.0
20260503213120 60 239 4.0 14.0 0.00 0.00 0.00 32 1010.1
20260503213021 60 250 4.0 14.0 0.00 0.00 0.00 32 1010.1
20260503212920 60 237 4.0 14.0 0.00 0.00 0.00 32 1010.0
20260503212820 60 319 4.0 14.0 0.00 0.00 0.00 32 1010.1
20260503212718 60 248 5.0 14.0 0.00 0.00 0.00 31 1010.0
20260503212619 60 256 5.0 14.0 0.00 0.00 0.00 32 1010.0
20260503212533 60 262 5.0 14.0 0.00 0.00 0.00 31 1010.1
20260503212318 60 253 5.0 11.0 0.00 0.00 0.00 32 1010.1
20260503212215 60 260 5.0 13.0 0.00 0.00 0.00 32 1010.1
20260503212149 60 299 5.0 13.0 0.00 0.00 0.00 31 1009.9
20260503211816 60 341 4.0 13.0 0.00 0.00 0.00 32 1010.0
20260503211730 60 246 4.0 13.0 0.00 0.00 0.00 32 1010.1
20260503211512 59 323 4.0 13.0 0.00 0.00 0.00 32 1010.0
20260503211427 60 287 4.0 13.0 0.00 0.00 0.00 32 1010.1
20260503211209 59 260 4.0 14.0 0.00 0.00 0.00 32 1010.2
20260503211109 59 238 4.0 14.0 0.00 0.00 0.00 33 1010.0
20260503211010 59 319 5.0 14.0 0.00 0.00 0.00 33 1010.1
20260503210910 59 277 5.0 14.0 0.00 0.00 0.00 32 1010.0
20260503210810 59 238 5.0 14.0 0.00 0.00 0.00 32 1010.0
20260503210724 59 244 5.0 14.0 0.00 0.00 0.00 32 1010.1
20260503210507 59 157 5.0 14.0 0.00 0.00 0.00 32 1010.1
20260503210407 59 305 5.0 14.0 0.00 0.00 0.00 31 1009.9
20260503210307 59 275 5.0 14.0 0.00 0.00 0.00 32 1010.0
20260503210205 59 5 6.0 14.0 0.00 0.00 0.00 32 1010.0
20260503210104 59 250 6.0 14.0 0.00 0.00 0.00 32 1010.0
20260503210006 59 248 5.0 14.0 0.00 0.00 0.00 31 1010.0
20260503205905 59 250 6.0 14.0 0.00 0.00 0.00 32 1010.1
20260503205805 59 271 6.0 14.0 0.00 0.00 0.00 32 1010.1
20260503205703 59 258 6.0 14.0 0.00 0.00 0.00 31 1010.0
20260503205604 59 259 6.0 14.0 0.00 0.00 0.00 32 1010.1
20260503205504 59 254 6.0 14.0 0.00 0.00 0.00 32 1010.1
20260503205405 59 5 5.0 14.0 0.00 0.00 0.00 31 1010.0
20260503205304 59 251 5.0 14.0 0.00 0.00 0.00 31 1010.1
20260503205204 59 238 5.0 14.0 0.00 0.00 0.00 32 1010.1
20260503205120 59 263 5.0 14.0 0.00 0.00 0.00 32 1010.1
20260503204904 59 239 4.0 12.0 0.00 0.00 0.00 32 1010.1
20260503204804 59 268 4.0 12.0 0.00 0.00 0.00 32 1010.1
20260503204704 59 278 4.0 12.0 0.00 0.00 0.00 32 1010.0
20260503204605 59 243 4.0 12.0 0.00 0.00 0.00 33 1010.0
20260503204505 59 268 4.0 12.0 0.00 0.00 0.00 32 1010.0
20260503204418 59 258 4.0 12.0 0.00 0.00 0.00 32 1009.9
20260503204158 59 227 4.0 13.0 0.00 0.00 0.00 34 1010.1
20260503204058 59 338 4.0 13.0 0.00 0.00 0.00 33 1010.0
20260503203958 58 271 4.0 13.0 0.00 0.00 0.00 32 1010.0
20260503203858 58 270 4.0 13.0 0.00 0.00 0.00 33 1010.1
20260503203813 58 267 4.0 13.0 0.00 0.00 0.00 33 1010.1
20260503203556 58 283 4.0 13.0 0.00 0.00 0.00 32 1010.1
20260503203512 58 277 4.0 13.0 0.00 0.00 0.00 31 1010.1
20260503203253 58 238 4.0 13.0 0.00 0.00 0.00 33 1010.1
20260503203209 58 264 4.0 13.0 0.00 0.00 0.00 33 1010.1
20260503202953 59 258 4.0 13.0 0.00 0.00 0.00 32 1010.2
20260503202853 59 294 4.0 13.0 0.00 0.00 0.00 33 1010.1
20260503202752 59 333 4.0 13.0 0.00 0.00 0.00 34 1010.2
20260503202650 58 293 4.0 13.0 0.00 0.00 0.00 33 1010.1
20260503202550 58 289 5.0 13.0 0.00 0.00 0.00 33 1010.1
20260503202450 58 240 5.0 13.0 0.00 0.00 0.00 32 1010.2
20260503202351 58 251 5.0 17.0 0.00 0.00 0.00 33 1010.1
20260503202249 59 280 5.0 17.0 0.00 0.00 0.00 33 1010.2
20260503202207 58 250 5.0 17.0 0.00 0.00 0.00 33 1010.2
20260503201949 58 275 5.0 18.0 0.00 0.00 0.00 33 1010.2
20260503201848 58 231 5.0 18.0 0.00 0.00 0.00 33 1010.2
20260503201804 58 223 5.0 18.0 0.00 0.00 0.00 33 1010.2
20260503201549 58 244 6.0 18.0 0.00 0.00 0.00 32 1010.2
20260503201445 58 250 6.0 18.0 0.00 0.00 0.00 33 1010.3
20260503201400 58 260 6.0 18.0 0.00 0.00 0.00 32 1010.2
20260503201143 58 282 5.0 18.0 0.00 0.00 0.00 32 1010.4
20260503201059 58 322 5.0 12.0 0.00 0.00 0.00 31 1010.4
20260503200840 59 240 5.0 12.0 0.00 0.00 0.00 34 1010.3
20260503200738 59 287 5.0 12.0 0.00 0.00 0.00 32 1010.4
20260503200639 59 256 5.0 10.0 0.00 0.00 0.00 32 1010.3
20260503200537 59 267 5.0 10.0 0.00 0.00 0.00 33 1010.5
20260503200440 59 273 5.0 10.0 0.00 0.00 0.00 33 1010.4
20260503200336 59 257 4.0 10.0 0.00 0.00 0.00 35 1010.4
20260503200236 59 323 4.0 10.0 0.00 0.00 0.00 36 1010.4
20260503200136 58 251 4.0 10.0 0.00 0.00 0.00 35 1010.4
20260503200036 58 233 4.0 12.0 0.00 0.00 0.00 35 1010.3
20260503195935 58 329 4.0 12.0 0.00 0.00 0.00 35 1010.3
20260503195836 58 260 4.0 12.0 0.00 0.00 0.00 34 1010.4
20260503195737 58 258 4.0 12.0 0.00 0.00 0.00 34 1010.4
20260503195708 58 261 4.0 12.0 0.00 0.00 0.00 35 1010.5
20260503195419 57 292 5.0 12.0 0.00 0.00 0.00 34 1010.4
20260503194931 57 240 5.0 13.0 0.00 0.00 0.00 35 1010.5
20260503194829 57 284 5.0 13.0 0.00 0.00 0.00 35 1010.5
20260503194730 57 304 5.0 13.0 0.00 0.00 0.00 34 1010.5
20260503194630 57 355 5.0 13.0 0.00 0.00 0.00 34 1010.5
20260503194530 57 250 5.0 13.0 0.00 0.00 0.00 34 1010.5
20260503194429 57 229 5.0 13.0 0.00 0.00 0.00 34 1010.5
20260503194331 57 236 5.0 13.0 0.00 0.00 0.00 34 1010.5
20260503194230 57 253 5.0 13.0 0.00 0.00 0.00 35 1010.5
20260503194131 57 230 5.0 11.0 0.00 0.00 0.00 36 1010.5
20260503194045 57 264 5.0 11.0 0.00 0.00 0.00 36 1010.6
20260503193829 56 256 5.0 11.0 0.00 0.00 0.00 35 1010.5
20260503193729 57 302 5.0 11.0 0.00 0.00 0.00 35 1010.5
20260503193627 57 243 5.0 12.0 0.00 0.00 0.00 35 1010.4
20260503193528 57 250 5.0 12.0 0.00 0.00 0.00 34 1010.4
20260503193427 57 321 5.0 12.0 0.00 0.00 0.00 34 1010.5
20260503193327 57 235 4.0 12.0 0.00 0.00 0.00 34 1010.6
20260503193227 57 243 4.0 12.0 0.00 0.00 0.00 35 1010.5
20260503193128 57 309 4.0 12.0 0.00 0.00 0.00 35 1010.5
20260503193025 57 271 4.0 14.0 0.00 0.00 0.00 35 1010.6
20260503192939 57 228 4.0 14.0 0.00 0.00 0.00 35 1010.6
20260503192723 57 258 5.0 14.0 0.00 0.00 0.00 37 1010.6
20260503192624 57 237 4.0 14.0 0.00 0.00 0.00 35 1010.6
20260503192524 57 232 4.0 14.0 0.00 0.00 0.00 36 1010.7
20260503192442 57 270 4.0 14.0 0.00 0.00 0.00 37 1010.7
20260503192239 57 242 5.0 14.0 0.00 0.00 0.00 36 1010.7
20260503192023 57 348 5.0 13.0 0.00 0.00 0.00 35 1010.7
20260503191923 56 240 4.0 13.0 0.00 0.00 0.00 35 1010.7
20260503191824 56 294 4.0 13.0 0.00 0.00 0.00 38 1010.7
20260503191722 56 278 4.0 13.0 0.00 0.00 0.00 36 1010.7
20260503191619 56 279 4.0 13.0 0.00 0.00 0.00 35 1010.8
20260503191535 56 285 4.0 13.0 0.00 0.00 0.00 36 1010.8
20260503191318 56 5 3.0 11.0 0.00 0.00 0.00 39 1010.9
20260503191219 56 17 3.0 10.0 0.00 0.00 0.00 36 1010.8
20260503191117 56 336 3.0 11.0 0.00 0.00 0.00 37 1010.7
20260503191019 56 238 3.0 11.0 0.00 0.00 0.00 36 1010.8
20260503190918 56 317 3.0 11.0 0.00 0.00 0.00 37 1010.7
20260503190815 56 202 4.0 11.0 0.00 0.00 0.00 37 1010.7
20260503190713 56 198 4.0 11.0 0.00 0.00 0.00 39 1010.7
20260503190615 56 229 4.0 11.0 0.00 0.00 0.00 39 1010.8
20260503190544 56 275 4.0 11.0 0.00 0.00 0.00 36 1010.9
20260503190212 56 260 5.0 13.0 0.00 0.00 0.00 37 1010.8
20260503190113 56 298 4.0 13.0 0.00 0.00 0.00 38 1010.7
20260503190012 56 300 5.0 13.0 0.00 0.00 0.00 37 1010.8
20260503185928 56 264 5.0 13.0 0.00 0.00 0.00 37 1010.8
20260503185712 56 223 5.0 13.0 0.00 0.00 0.00 37 1010.9
20260503185610 56 258 5.0 13.0 0.00 0.00 0.00 38 1010.9
20260503185511 56 260 5.0 13.0 0.00 0.00 0.00 38 1010.9
20260503185411 56 188 5.0 13.0 0.00 0.00 0.00 39 1010.9
20260503185310 56 265 5.0 13.0 0.00 0.00 0.00 38 1010.8
20260503185209 56 241 5.0 13.0 0.00 0.00 0.00 38 1010.8
20260503185110 56 237 5.0 14.0 0.00 0.00 0.00 38 1010.9
20260503185026 56 219 5.0 18.0 0.00 0.00 0.00 37 1010.9
20260503184810 55 236 6.0 18.0 0.00 0.00 0.00 38 1010.9
20260503184727 55 5 6.0 18.0 0.00 0.00 0.00 38 1010.9
20260503184526 55 250 6.0 18.0 0.00 0.00 0.00 38 1011.0
20260503184309 56 262 6.0 18.0 0.00 0.00 0.00 36 1011.0
20260503184207 56 239 6.0 18.0 0.00 0.00 0.00 36 1011.0
20260503184126 56 245 6.0 18.0 0.00 0.00 0.00 35 1011.1
20260503183908 57 259 6.0 14.0 0.00 0.00 0.00 36 1011.0
20260503183809 57 280 5.0 14.0 0.00 0.00 0.00 37 1011.1
20260503183709 56 346 5.0 14.0 0.00 0.00 0.00 39 1011.0
20260503183607 56 9 5.0 14.0 0.00 0.00 0.00 38 1011.0
20260503183524 56 300 5.0 14.0 0.00 0.00 0.00 36 1011.0
20260503183308 56 286 5.0 11.0 0.00 0.00 0.00 38 1011.0
20260503183222 56 277 5.0 11.0 0.00 0.00 0.00 40 1011.0
20260503183005 56 273 4.0 11.0 0.00 0.00 0.00 37 1011.1
20260503182906 56 252 4.0 11.0 0.00 0.00 0.00 37 1011.0
20260503182805 56 243 4.0 11.0 0.00 0.00 0.00 37 1011.1
20260503182731 56 269 4.0 11.0 0.00 0.00 0.00 37 1011.1
20260503182714 56 217 4.0 11.0 0.00 0.00 0.00 39 1011.0
20260503182139 55 302 4.0 10.0 0.00 0.00 0.00 38 1011.0
20260503181804 55 306 4.0 11.0 0.00 0.00 0.00 38 1011.1
20260503181705 55 252 4.0 11.0 0.00 0.00 0.00 39 1011.2
20260503181604 55 248 4.0 11.0 0.00 0.00 0.00 38 1011.1
20260503181506 56 244 4.0 11.0 0.00 0.00 0.00 39 1011.3
20260503181403 55 246 3.0 11.0 0.00 0.00 0.00 41 1011.1
20260503181304 55 247 4.0 11.0 0.00 0.00 0.00 40 1011.1
20260503181204 55 254 3.0 11.0 0.00 0.00 0.00 41 1011.2
20260503181104 55 265 3.0 11.0 0.00 0.00 0.00 40 1011.2
20260503181005 55 246 4.0 11.0 0.00 0.00 0.00 40 1011.0
20260503180905 55 250 4.0 15.0 0.00 0.00 0.00 39 1011.0
20260503180801 55 297 4.0 15.0 0.00 0.00 0.00 39 1011.2
20260503180719 55 254 3.0 15.0 0.00 0.00 0.00 42 1011.0
20260503180501 55 236 4.0 15.0 0.00 0.00 0.00 43 1011.1
20260503180420 55 236 4.0 15.0 0.00 0.00 0.00 43 1011.1
20260503180235 55 238 4.0 15.0 0.00 0.00 0.00 40 1011.2
20260503175903 54 280 4.0 12.0 0.00 0.00 0.00 42 1011.2
20260503175832 54 263 4.0 15.0 0.00 0.00 0.00 41 1011.1
20260503175500 54 267 5.0 15.0 0.00 0.00 0.00 41 1011.2
20260503175401 54 276 5.0 15.0 0.00 0.00 0.00 41 1011.3
20260503175315 53 304 5.0 15.0 0.00 0.00 0.00 46 1011.2
20260503175100 53 257 5.0 15.0 0.00 0.00 0.00 43 1011.1
20260503174959 53 0 5.0 15.0 0.00 0.00 0.00 47 1011.2
20260503174900 53 281 5.0 15.0 0.00 0.00 0.00 42 1011.2
20260503174759 52 327 5.0 11.0 0.00 0.00 0.00 43 1011.3
20260503174716 52 240 4.0 11.0 0.00 0.00 0.00 41 1011.2
20260503174500 52 250 4.0 10.0 0.00 0.00 0.00 42 1011.3
20260503174357 52 240 4.0 10.0 0.00 0.00 0.00 42 1011.4
20260503174300 53 238 4.0 10.0 0.00 0.00 0.00 42 1011.4
20260503174214 53 263 4.0 10.0 0.00 0.00 0.00 42 1011.3
20260503173957 52 234 4.0 10.0 0.00 0.00 0.00 44 1011.4
20260503173858 52 253 4.0 10.0 0.00 0.00 0.00 47 1011.5
20260503173758 52 271 4.0 13.0 0.00 0.00 0.00 45 1011.5
20260503173727 52 268 5.0 14.0 0.00 0.00 0.00 44 1011.5
20260503173354 52 355 5.0 14.0 0.00 0.00 0.00 43 1011.5
20260503173254 52 351 5.0 14.0 0.00 0.00 0.00 43 1011.6
20260503173154 52 305 5.0 14.0 0.00 0.00 0.00 45 1011.5
20260503173110 51 289 5.0 14.0 0.00 0.00 0.00 44 1011.5
20260503172853 52 248 5.0 14.0 0.00 0.00 0.00 43 1011.5
20260503172755 52 248 4.0 14.0 0.00 0.00 0.00 44 1011.5
20260503172654 52 228 4.0 10.0 0.00 0.00 0.00 44 1011.5
20260503172553 52 277 4.0 10.0 0.00 0.00 0.00 45 1011.5
20260503172453 52 267 4.0 10.0 0.00 0.00 0.00 45 1011.5
20260503172354 51 254 4.0 10.0 0.00 0.00 0.00 44 1011.5
20260503172251 51 240 4.0 10.0 0.00 0.00 0.00 44 1011.5
20260503172153 51 350 4.0 10.0 0.00 0.00 0.00 44 1011.5
20260503172108 51 253 4.0 10.0 0.00 0.00 0.00 45 1011.7
20260503171852 51 253 5.0 14.0 0.00 0.00 0.00 45 1011.7
20260503171751 51 253 5.0 14.0 0.00 0.00 0.00 45 1011.6
20260503171651 51 330 5.0 14.0 0.00 0.00 0.00 47 1011.7
20260503171553 51 279 5.0 14.0 0.00 0.00 0.00 46 1011.6
20260503171449 51 279 6.0 14.0 0.00 0.00 0.00 46 1011.6
20260503171351 51 280 6.0 14.0 0.00 0.00 0.00 44 1011.6
20260503171249 51 261 6.0 14.0 0.00 0.00 0.00 44 1011.6
20260503171147 51 344 7.0 14.0 0.00 0.00 0.00 44 1011.7
20260503171048 51 244 7.0 14.0 0.00 0.00 0.00 43 1011.8
20260503171003 51 304 6.0 14.0 0.00 0.00 0.00 44 1011.7
20260503170744 52 246 6.0 14.0 0.00 0.00 0.00 44 1011.8
20260503170644 52 292 6.0 14.0 0.00 0.00 0.00 45 1011.8
20260503170544 52 237 5.0 14.0 0.00 0.00 0.00 44 1011.8
20260503170458 52 328 5.0 14.0 0.00 0.00 0.00 46 1011.8
20260503170242 52 281 5.0 13.0 0.00 0.00 0.00 45 1011.8
20260503170224 51 246 4.0 13.0 0.00 0.00 0.00 45 1011.9
20260503160215 51 306 5.0 14.0 0.00 0.00 0.00 47 1012.1
20260503160116 50 287 5.0 14.0 0.00 0.00 0.00 48 1012.1
20260503150657 49 270 2.0 10.0 0.00 0.00 0.00 49 1012.3
20260503150557 49 316 2.0 9.0 0.00 0.00 0.00 52 1012.1
20260503150457 49 251 2.0 9.0 0.00 0.00 0.00 51 1012.1
20260503150430 49 244 2.0 9.0 0.00 0.00 0.00 50 1012.2
20260503140151 49 330 3.0 9.0 0.00 0.00 0.00 52 1012.2
20260503131340 47 254 4.0 15.0 0.00 0.00 0.00 58 1012.2
20260503131241 47 259 4.0 15.0 0.00 0.00 0.00 58 1012.1
20260503131140 47 289 4.0 12.0 0.00 0.00 0.00 60 1012.1
20260503131057 47 302 4.0 12.0 0.00 0.00 0.00 59 1012.1
20260503130912 46 323 4.0 12.0 0.00 0.00 0.00 59 1012.1
20260503130541 46 248 5.0 13.0 0.00 0.00 0.00 58 1012.1
20260503130443 46 37 5.0 13.0 0.00 0.00 0.00 58 1012.1
20260503130358 46 327 5.0 14.0 0.00 0.00 0.00 58 1012.1
20260503130142 46 312 6.0 14.0 0.00 0.00 0.00 58 1012.1
20260503120142 44 271 5.0 11.0 0.00 0.00 0.00 63 1012.0
20260503110731 43 297 5.0 12.0 0.00 0.00 0.00 64 1011.5
20260503110630 43 355 5.0 12.0 0.00 0.00 0.00 64 1011.5
20260503110529 43 257 5.0 12.0 0.00 0.00 0.00 65 1011.4
20260503110429 43 253 5.0 12.0 0.00 0.00 0.00 64 1011.4
20260503110329 43 306 5.0 12.0 0.00 0.00 0.00 64 1011.4
20260503110230 43 292 6.0 12.0 0.00 0.00 0.00 64 1011.3
20260503110127 43 249 6.0 12.0 0.00 0.00 0.00 64 1011.3
20260503100258 43 338 3.0 8.0 0.00 0.00 0.00 62 1010.9
20260503100212 43 305 3.0 8.0 0.00 0.00 0.00 62 1010.9
20260503090459 44 313 3.0 10.0 0.00 0.00 0.00 58 1010.5
20260503090123 44 304 3.0 10.0 0.00 0.00 0.00 58 1010.6
20260503081607 45 338 4.0 11.0 0.00 0.00 0.00 57 1010.4
20260503081507 45 339 4.0 11.0 0.00 0.00 0.00 57 1010.4
20260503081407 45 0 4.0 11.0 0.00 0.00 0.00 57 1010.4
20260503081306 45 315 4.0 11.0 0.00 0.00 0.00 57 1010.4
20260503081207 45 318 5.0 11.0 0.00 0.00 0.00 57 1010.5
20260503081141 45 303 5.0 11.0 0.00 0.00 0.00 57 1010.4
20260503081126 45 0 5.0 12.0 0.00 0.00 0.00 57 1010.4
20260503080407 45 15 5.0 12.0 0.00 0.00 0.00 57 1010.4
20260503080320 45 261 5.0 12.0 0.00 0.00 0.00 56 1010.4
20260503080104 45 325 4.0 12.0 0.00 0.00 0.00 57 1010.3
20260503072859 46 348 2.0 5.0 0.00 0.00 0.00 56 1010.3
20260503072800 46 16 2.0 5.0 0.00 0.00 0.00 56 1010.3
20260503072658 46 23 2.0 5.0 0.00 0.00 0.00 56 1010.3
20260503072559 46 284 1.0 5.0 0.00 0.00 0.00 56 1010.3
20260503072528 46 265 1.0 5.0 0.00 0.00 0.00 56 1010.3
20260503072155 46 0 1.0 5.0 0.00 0.00 0.00 56 1010.3
20260503072055 46 23 1.0 5.0 0.00 0.00 0.00 56 1010.3
20260503071954 46 23 1.0 5.0 0.00 0.00 0.00 56 1010.3
20260503071855 46 33 1.0 5.0 0.00 0.00 0.00 57 1010.2
20260503071824 46 28 1.0 5.0 0.00 0.00 0.00 57 1010.3
20260503071454 46 28 2.0 5.0 0.00 0.00 0.00 56 1010.3
20260503071350 46 28 2.0 5.0 0.00 0.00 0.00 56 1010.3
20260503071251 46 310 2.0 6.0 0.00 0.00 0.00 56 1010.3
20260503071151 46 310 2.0 6.0 0.00 0.00 0.00 56 1010.3
20260503071048 46 298 3.0 11.0 0.00 0.00 0.00 56 1010.3
20260503070948 46 350 3.0 11.0 0.00 0.00 0.00 56 1010.3
20260503070850 46 350 3.0 11.0 0.00 0.00 0.00 56 1010.3
20260503070747 46 355 3.0 11.0 0.00 0.00 0.00 56 1010.3
20260503070702 46 13 3.0 11.0 0.00 0.00 0.00 56 1010.3
20260503070446 46 306 2.0 11.0 0.00 0.00 0.00 56 1010.4
20260503070344 46 333 2.0 11.0 0.00 0.00 0.00 56 1010.3
20260503070258 46 286 2.0 11.0 0.00 0.00 0.00 56 1010.3
20260503060312 47 317 1.0 6.0 0.00 0.00 0.00 53 1010.5
20260503060212 47 317 2.0 6.0 0.00 0.00 0.00 53 1010.5
20260503060111 47 317 2.0 6.0 0.00 0.00 0.00 52 1010.5
20260503055112 48 350 2.0 5.0 0.00 0.00 0.00 53 1010.5
20260503055011 48 355 2.0 5.0 0.00 0.00 0.00 52 1010.6
20260503054910 48 348 2.0 5.0 0.00 0.00 0.00 52 1010.6
20260503054809 48 28 2.0 5.0 0.00 0.00 0.00 52 1010.6
20260503054707 48 332 2.0 5.0 0.00 0.00 0.00 52 1010.7
20260503054606 48 295 2.0 5.0 0.00 0.00 0.00 52 1010.7
20260503054521 48 342 2.0 5.0 0.00 0.00 0.00 52 1010.7
20260503054333 48 342 2.0 9.0 0.00 0.00 0.00 52 1010.7
20260503054018 48 320 2.0 9.0 0.00 0.00 0.00 51 1010.7
20260503053757 48 292 2.0 9.0 0.00 0.00 0.00 51 1010.7
20260503053658 48 5 2.0 9.0 0.00 0.00 0.00 51 1010.7
20260503053559 48 39 2.0 9.0 0.00 0.00 0.00 51 1010.7
20260503053513 48 320 2.0 9.0 0.00 0.00 0.00 51 1010.7
20260503053257 48 20 2.0 10.0 0.00 0.00 0.00 51 1010.7
20260503053157 48 319 3.0 10.0 0.00 0.00 0.00 51 1010.7
20260503053058 48 314 3.0 10.0 0.00 0.00 0.00 51 1010.7
20260503053011 48 314 3.0 10.0 0.00 0.00 0.00 51 1010.7
20260503052756 48 325 4.0 10.0 0.00 0.00 0.00 51 1010.7
20260503052653 48 311 4.0 10.0 0.00 0.00 0.00 51 1010.7
20260503052554 48 329 4.0 10.0 0.00 0.00 0.00 51 1010.7
20260503052452 48 321 4.0 10.0 0.00 0.00 0.00 51 1010.7
20260503052353 48 342 3.0 10.0 0.00 0.00 0.00 50 1010.7
20260503052252 48 323 3.0 10.0 0.00 0.00 0.00 51 1010.7
20260503052152 48 273 3.0 10.0 0.00 0.00 0.00 50 1010.7
20260503052052 48 340 3.0 10.0 0.00 0.00 0.00 50 1010.7
20260503051953 48 26 2.0 10.0 0.00 0.00 0.00 51 1010.8
20260503051853 48 17 2.0 10.0 0.00 0.00 0.00 51 1010.8
20260503051754 48 274 2.0 8.0 0.00 0.00 0.00 51 1010.8
20260503051652 48 331 2.0 6.0 0.00 0.00 0.00 51 1010.8
20260503051552 48 344 1.0 6.0 0.00 0.00 0.00 50 1010.8
20260503051452 48 302 1.0 6.0 0.00 0.00 0.00 51 1010.8
20260503051350 48 11 2.0 6.0 0.00 0.00 0.00 51 1010.9
20260503051250 48 11 2.0 6.0 0.00 0.00 0.00 50 1010.9
20260503051149 48 19 2.0 6.0 0.00 0.00 0.00 51 1010.9
20260503051048 48 273 2.0 6.0 0.00 0.00 0.00 51 1010.8
20260503050948 48 261 2.0 6.0 0.00 0.00 0.00 51 1010.8
20260503050847 48 286 1.0 5.0 0.00 0.00 0.00 51 1010.8
20260503050748 49 288 1.0 5.0 0.00 0.00 0.00 51 1010.8
20260503050645 49 274 2.0 5.0 0.00 0.00 0.00 51 1010.8
20260503050543 49 274 2.0 9.0 0.00 0.00 0.00 50 1010.8
20260503050446 49 274 2.0 9.0 0.00 0.00 0.00 50 1010.8
20260503050344 49 271 2.0 9.0 0.00 0.00 0.00 50 1010.8
20260503050244 49 339 2.0 9.0 0.00 0.00 0.00 51 1010.8
20260503050146 49 9 2.0 9.0 0.00 0.00 0.00 50 1010.8
20260503050042 49 5 2.0 9.0 0.00 0.00 0.00 50 1010.8
20260503045943 49 5 2.0 9.0 0.00 0.00 0.00 50 1010.8
20260503045856 49 5 3.0 9.0 0.00 0.00 0.00 50 1010.8
20260503045639 49 5 3.0 9.0 0.00 0.00 0.00 50 1010.8
20260503045537 49 0 3.0 9.0 0.00 0.00 0.00 50 1010.8
20260503045439 49 0 3.0 9.0 0.00 0.00 0.00 50 1010.8
20260503045339 49 5 3.0 9.0 0.00 0.00 0.00 50 1010.8
20260503045238 49 339 3.0 9.0 0.00 0.00 0.00 50 1010.8
20260503045138 49 329 3.0 9.0 0.00 0.00 0.00 50 1010.8
20260503045112 49 26 3.0 9.0 0.00 0.00 0.00 50 1010.8
20260503044740 49 309 3.0 9.0 0.00 0.00 0.00 50 1010.8
20260503044638 49 329 3.0 9.0 0.00 0.00 0.00 50 1010.8
20260503044538 49 19 2.0 9.0 0.00 0.00 0.00 50 1010.9
20260503044455 49 285 2.0 9.0 0.00 0.00 0.00 50 1010.8
20260503044239 49 15 2.0 8.0 0.00 0.00 0.00 50 1010.9
20260503044154 49 17 2.0 7.0 0.00 0.00 0.00 50 1010.9
20260503043940 49 5 2.0 10.0 0.00 0.00 0.00 50 1010.9
20260503043838 49 15 2.0 10.0 0.00 0.00 0.00 50 1010.9
20260503043739 49 344 2.0 10.0 0.00 0.00 0.00 50 1010.9
20260503043638 49 13 3.0 10.0 0.00 0.00 0.00 50 1010.9
20260503043541 49 300 3.0 10.0 0.00 0.00 0.00 50 1010.9
20260503043437 49 300 4.0 10.0 0.00 0.00 0.00 50 1010.9
20260503043336 49 300 4.0 10.0 0.00 0.00 0.00 50 1010.9
20260503043237 49 269 4.0 10.0 0.00 0.00 0.00 50 1011.0
20260503043136 49 344 4.0 10.0 0.00 0.00 0.00 50 1011.0
20260503043037 49 318 3.0 9.0 0.00 0.00 0.00 49 1011.0
20260503042937 49 311 3.0 8.0 0.00 0.00 0.00 50 1011.0
20260503042836 49 316 3.0 8.0 0.00 0.00 0.00 49 1011.0
20260503042737 49 315 3.0 8.0 0.00 0.00 0.00 49 1011.0
20260503042637 49 20 3.0 8.0 0.00 0.00 0.00 49 1011.0
20260503042537 49 303 3.0 8.0 0.00 0.00 0.00 49 1011.0
20260503042435 49 312 2.0 8.0 0.00 0.00 0.00 49 1011.0
20260503042335 49 326 2.0 7.0 0.00 0.00 0.00 50 1011.0
20260503042232 49 271 2.0 7.0 0.00 0.00 0.00 50 1011.0
20260503042130 49 326 2.0 5.0 0.00 0.00 0.00 50 1011.0
20260503042031 49 338 2.0 5.0 0.00 0.00 0.00 49 1011.0
20260503041930 49 337 2.0 5.0 0.00 0.00 0.00 49 1011.0
20260503041828 49 319 2.0 7.0 0.00 0.00 0.00 49 1011.0
20260503041745 49 343 3.0 7.0 0.00 0.00 0.00 49 1011.0
20260503041529 49 341 3.0 8.0 0.00 0.00 0.00 49 1011.0
20260503041429 49 341 3.0 8.0 0.00 0.00 0.00 49 1011.0
20260503041327 49 341 3.0 8.0 0.00 0.00 0.00 49 1011.1
20260503041224 49 5 3.0 8.0 0.00 0.00 0.00 49 1011.0
20260503041124 49 325 3.0 8.0 0.00 0.00 0.00 49 1011.0
20260503041023 49 314 3.0 8.0 0.00 0.00 0.00 49 1011.0
20260503040923 50 263 3.0 8.0 0.00 0.00 0.00 49 1011.0
20260503040823 49 332 3.0 8.0 0.00 0.00 0.00 49 1011.1
20260503040723 50 326 3.0 8.0 0.00 0.00 0.00 49 1011.1
20260503040622 50 290 3.0 7.0 0.00 0.00 0.00 49 1011.1
20260503040521 50 251 3.0 10.0 0.00 0.00 0.00 49 1011.1
20260503040420 50 348 3.0 10.0 0.00 0.00 0.00 49 1011.1
20260503040319 50 263 3.0 10.0 0.00 0.00 0.00 49 1011.1
20260503040221 50 274 3.0 10.0 0.00 0.00 0.00 49 1011.0
20260503040120 50 265 3.0 10.0 0.00 0.00 0.00 49 1011.0
20260503040021 50 255 3.0 10.0 0.00 0.00 0.00 49 1011.0
20260503035920 50 250 3.0 10.0 0.00 0.00 0.00 49 1011.0
20260503035835 50 0 3.0 10.0 0.00 0.00 0.00 48 1011.0
20260503035619 50 311 2.0 10.0 0.00 0.00 0.00 48 1011.0
20260503035532 50 334 2.0 9.0 0.00 0.00 0.00 48 1011.0
20260503035318 50 302 2.0 9.0 0.00 0.00 0.00 48 1011.0
20260503035230 50 286 3.0 9.0 0.00 0.00 0.00 48 1011.0
20260503035013 50 338 3.0 9.0 0.00 0.00 0.00 48 1010.9
20260503034910 50 338 3.0 9.0 0.00 0.00 0.00 48 1010.9
20260503034810 50 338 3.0 9.0 0.00 0.00 0.00 48 1010.9
20260503034710 50 338 3.0 9.0 0.00 0.00 0.00 47 1011.0
20260503034609 50 321 3.0 9.0 0.00 0.00 0.00 47 1010.9
20260503034508 50 327 3.0 9.0 0.00 0.00 0.00 47 1011.0
20260503034409 50 323 3.0 9.0 0.00 0.00 0.00 47 1011.0
20260503034308 50 319 3.0 9.0 0.00 0.00 0.00 48 1011.0
20260503034206 50 319 3.0 9.0 0.00 0.00 0.00 47 1011.0
20260503034124 50 346 3.0 10.0 0.00 0.00 0.00 47 1011.0
20260503033906 50 304 3.0 10.0 0.00 0.00 0.00 47 1010.9
20260503033823 50 306 3.0 10.0 0.00 0.00 0.00 48 1010.9
20260503033605 50 325 3.0 10.0 0.00 0.00 0.00 47 1010.9
20260503033502 50 294 3.0 10.0 0.00 0.00 0.00 47 1010.9
20260503033404 50 312 3.0 10.0 0.00 0.00 0.00 47 1011.0
20260503033304 50 292 3.0 10.0 0.00 0.00 0.00 47 1010.9
20260503033203 50 293 3.0 10.0 0.00 0.00 0.00 47 1010.9
20260503033119 50 328 3.0 8.0 0.00 0.00 0.00 47 1010.9
20260503032902 50 248 3.0 8.0 0.00 0.00 0.00 47 1010.9
20260503032802 50 284 3.0 8.0 0.00 0.00 0.00 47 1010.9
20260503032702 50 321 3.0 8.0 0.00 0.00 0.00 47 1010.9
20260503032603 50 270 3.0 8.0 0.00 0.00 0.00 47 1011.0
20260503032520 50 288 3.0 8.0 0.00 0.00 0.00 47 1011.0
20260503032319 50 300 2.0 7.0 0.00 0.00 0.00 48 1011.0
20260503032102 50 301 2.0 7.0 0.00 0.00 0.00 47 1010.9
20260503032002 50 290 2.0 7.0 0.00 0.00 0.00 47 1010.9
20260503031902 50 311 2.0 7.0 0.00 0.00 0.00 47 1010.9
20260503031804 50 329 2.0 7.0 0.00 0.00 0.00 47 1010.9
20260503031703 50 349 2.0 7.0 0.00 0.00 0.00 47 1010.9
20260503031602 50 301 2.0 6.0 0.00 0.00 0.00 47 1010.9
20260503031503 51 297 2.0 6.0 0.00 0.00 0.00 47 1010.9
20260503031401 51 278 2.0 6.0 0.00 0.00 0.00 47 1010.9
20260503031300 51 282 2.0 6.0 0.00 0.00 0.00 47 1010.9
20260503031202 51 296 2.0 7.0 0.00 0.00 0.00 47 1010.9
20260503031100 51 306 2.0 7.0 0.00 0.00 0.00 47 1010.9
20260503031016 51 304 2.0 7.0 0.00 0.00 0.00 46 1011.0
20260503030759 51 290 2.0 7.0 0.00 0.00 0.00 47 1011.0
20260503030659 51 312 3.0 8.0 0.00 0.00 0.00 47 1011.0
20260503030613 51 289 3.0 10.0 0.00 0.00 0.00 47 1011.0
20260503030400 51 289 3.0 10.0 0.00 0.00 0.00 46 1011.1
20260503030258 51 308 3.0 10.0 0.00 0.00 0.00 46 1011.0
20260503030201 51 350 3.0 10.0 0.00 0.00 0.00 46 1011.0
20260503030058 51 276 3.0 10.0 0.00 0.00 0.00 46 1011.1
20260503025959 51 324 3.0 10.0 0.00 0.00 0.00 46 1011.1
20260503025859 51 342 3.0 10.0 0.00 0.00 0.00 46 1011.0
20260503025759 51 275 3.0 10.0 0.00 0.00 0.00 46 1011.0
20260503025656 51 313 3.0 10.0 0.00 0.00 0.00 46 1011.1
20260503025557 51 336 3.0 10.0 0.00 0.00 0.00 46 1011.1
20260503025455 51 313 3.0 10.0 0.00 0.00 0.00 46 1011.1
20260503025357 51 259 3.0 9.0 0.00 0.00 0.00 46 1011.1
20260503025309 51 306 3.0 9.0 0.00 0.00 0.00 46 1011.1
20260503025055 51 290 3.0 9.0 0.00 0.00 0.00 46 1011.1
20260503024952 51 307 3.0 9.0 0.00 0.00 0.00 46 1011.1
20260503024850 51 269 2.0 9.0 0.00 0.00 0.00 46 1011.1
20260503024808 51 259 2.0 7.0 0.00 0.00 0.00 46 1011.1
20260503024550 51 312 2.0 6.0 0.00 0.00 0.00 46 1011.1
20260503024449 51 328 2.0 6.0 0.00 0.00 0.00 47 1011.2
20260503024403 51 330 2.0 5.0 0.00 0.00 0.00 46 1011.2
20260503024149 51 298 2.0 6.0 0.00 0.00 0.00 46 1011.2
20260503024050 51 300 2.0 6.0 0.00 0.00 0.00 46 1011.2
20260503023947 51 301 2.0 6.0 0.00 0.00 0.00 46 1011.2
20260503023847 51 309 2.0 6.0 0.00 0.00 0.00 46 1011.2
20260503023746 51 313 2.0 6.0 0.00 0.00 0.00 46 1011.1
20260503023645 51 328 2.0 6.0 0.00 0.00 0.00 46 1011.1
20260503023545 51 340 2.0 6.0 0.00 0.00 0.00 46 1011.1
20260503023444 51 297 2.0 6.0 0.00 0.00 0.00 47 1011.1
20260503023345 51 344 2.0 6.0 0.00 0.00 0.00 46 1011.1
20260503023245 51 341 2.0 6.0 0.00 0.00 0.00 45 1011.1
20260503023145 51 355 2.0 7.0 0.00 0.00 0.00 46 1011.1
20260503023046 51 265 2.0 7.0 0.00 0.00 0.00 46 1011.1
20260503022946 51 309 2.0 7.0 0.00 0.00 0.00 46 1011.1
20260503022845 51 328 2.0 7.0 0.00 0.00 0.00 46 1011.1
20260503022800 51 327 2.0 7.0 0.00 0.00 0.00 46 1011.1
20260503022556 51 327 2.0 7.0 0.00 0.00 0.00 46 1011.1
20260503022341 51 323 3.0 7.0 0.00 0.00 0.00 45 1011.1
20260503022238 51 290 2.0 7.0 0.00 0.00 0.00 45 1011.1
20260503022139 51 317 2.0 8.0 0.00 0.00 0.00 45 1011.1
20260503022038 51 323 2.0 8.0 0.00 0.00 0.00 45 1011.1
20260503021936 52 336 2.0 8.0 0.00 0.00 0.00 45 1011.1
20260503021908 52 306 2.0 8.0 0.00 0.00 0.00 46 1011.1
20260503021534 52 331 2.0 8.0 0.00 0.00 0.00 45 1011.1
20260503021451 52 331 3.0 8.0 0.00 0.00 0.00 45 1011.1
20260503021235 52 312 2.0 8.0 0.00 0.00 0.00 45 1011.1
20260503021135 52 309 2.0 8.0 0.00 0.00 0.00 45 1011.1
20260503021032 52 311 2.0 8.0 0.00 0.00 0.00 45 1011.1
20260503020932 52 311 2.0 8.0 0.00 0.00 0.00 45 1011.1
20260503020833 52 292 2.0 8.0 0.00 0.00 0.00 45 1011.1
20260503020734 52 340 2.0 8.0 0.00 0.00 0.00 45 1011.2
20260503020648 52 326 2.0 8.0 0.00 0.00 0.00 45 1011.2
20260503020448 52 311 2.0 8.0 0.00 0.00 0.00 45 1011.2
20260503020302 52 298 2.0 6.0 0.00 0.00 0.00 45 1011.1
20260503015932 52 281 2.0 6.0 0.00 0.00 0.00 45 1011.1
20260503015829 52 281 2.0 6.0 0.00 0.00 0.00 45 1011.1
20260503015729 52 9 2.0 6.0 0.00 0.00 0.00 46 1011.2
20260503015629 52 319 2.0 5.0 0.00 0.00 0.00 46 1011.2
20260503015529 52 290 2.0 5.0 0.00 0.00 0.00 45 1011.2
20260503015426 52 310 2.0 5.0 0.00 0.00 0.00 45 1011.2
20260503015325 52 313 2.0 5.0 0.00 0.00 0.00 45 1011.2
20260503015226 52 327 2.0 5.0 0.00 0.00 0.00 45 1011.2
20260503015127 52 326 2.0 5.0 0.00 0.00 0.00 45 1011.2
20260503015026 52 308 1.0 4.0 0.00 0.00 0.00 46 1011.2
20260503014926 52 308 1.0 4.0 0.00 0.00 0.00 46 1011.2
20260503014826 52 307 1.0 4.0 0.00 0.00 0.00 46 1011.3
20260503014725 52 308 1.0 4.0 0.00 0.00 0.00 46 1011.3
20260503014625 52 324 1.0 4.0 0.00 0.00 0.00 47 1011.4
20260503014524 52 306 1.0 3.0 0.00 0.00 0.00 47 1011.3
20260503014423 52 324 1.0 3.0 0.00 0.00 0.00 47 1011.4
20260503014323 52 324 1.0 3.0 0.00 0.00 0.00 46 1011.3
20260503014222 52 342 1.0 3.0 0.00 0.00 0.00 47 1011.3
20260503014122 52 338 1.0 3.0 0.00 0.00 0.00 47 1011.3
20260503014020 52 338 1.0 3.0 0.00 0.00 0.00 46 1011.3
20260503013951 52 355 1.0 3.0 0.00 0.00 0.00 46 1011.2
20260503013615 52 327 1.0 3.0 0.00 0.00 0.00 48 1011.3
20260503013529 52 327 1.0 3.0 0.00 0.00 0.00 47 1011.3
20260503013312 52 327 1.0 3.0 0.00 0.00 0.00 46 1011.3
20260503013211 53 327 1.0 3.0 0.00 0.00 0.00 46 1011.2
20260503013110 53 327 1.0 3.0 0.00 0.00 0.00 45 1011.3
20260503013010 53 327 1.0 3.0 0.00 0.00 0.00 45 1011.3
20260503012940 53 327 1.0 3.0 0.00 0.00 0.00 45 1011.2
20260503012606 53 338 1.0 5.0 0.00 0.00 0.00 45 1011.3
20260503012521 53 338 1.0 5.0 0.00 0.00 0.00 45 1011.3
20260503012305 53 338 1.0 5.0 0.00 0.00 0.00 44 1011.2
20260503012203 53 338 1.0 5.0 0.00 0.00 0.00 44 1011.2
20260503012134 53 338 1.0 5.0 0.00 0.00 0.00 45 1011.2
20260503011800 53 333 1.0 5.0 0.00 0.00 0.00 44 1011.1
20260503011700 53 348 1.0 5.0 0.00 0.00 0.00 45 1011.1
20260503011559 53 348 2.0 5.0 0.00 0.00 0.00 44 1011.2
20260503011501 53 348 2.0 5.0 0.00 0.00 0.00 45 1011.2
20260503011401 53 346 1.0 5.0 0.00 0.00 0.00 44 1011.1
20260503011301 53 13 1.0 5.0 0.00 0.00 0.00 44 1011.2
20260503011200 53 9 2.0 4.0 0.00 0.00 0.00 45 1011.2
20260503011100 53 20 2.0 4.0 0.00 0.00 0.00 45 1011.1
20260503011015 53 20 2.0 4.0 0.00 0.00 0.00 45 1011.2
20260503010759 53 13 2.0 4.0 0.00 0.00 0.00 45 1011.2
20260503010659 53 351 2.0 5.0 0.00 0.00 0.00 44 1011.2
20260503010626 53 351 2.0 5.0 0.00 0.00 0.00 44 1011.1
20260503010256 53 355 2.0 5.0 0.00 0.00 0.00 45 1011.1
20260503010156 53 348 2.0 5.0 0.00 0.00 0.00 45 1011.1
20260503010057 53 17 2.0 5.0 0.00 0.00 0.00 45 1011.0
20260503005956 53 17 2.0 6.0 0.00 0.00 0.00 44 1011.0
20260503005912 53 327 2.0 6.0 0.00 0.00 0.00 44 1011.0
20260503005656 53 51 2.0 6.0 0.00 0.00 0.00 45 1011.0
20260503005627 53 347 2.0 6.0 0.00 0.00 0.00 45 1010.9
20260503005313 53 329 2.0 6.0 0.00 0.00 0.00 45 1010.9
20260503005111 53 319 1.0 6.0 0.00 0.00 0.00 44 1010.9
20260503004912 53 330 1.0 6.0 0.00 0.00 0.00 45 1010.8
20260503004656 53 325 1.0 6.0 0.00 0.00 0.00 45 1010.8
20260503004628 53 323 1.0 6.0 0.00 0.00 0.00 44 1010.8
20260503004257 53 319 0.0 2.0 0.00 0.00 0.00 45 1010.7
20260503004157 53 319 0.0 2.0 0.00 0.00 0.00 45 1010.7
20260503004057 53 317 0.0 3.0 0.00 0.00 0.00 45 1010.7
20260503004011 53 317 1.0 3.0 0.00 0.00 0.00 45 1010.7
20260503003755 53 317 1.0 3.0 0.00 0.00 0.00 45 1010.7
20260503003657 53 317 1.0 3.0 0.00 0.00 0.00 44 1010.7
20260503003557 53 317 1.0 3.0 0.00 0.00 0.00 45 1010.7
20260503003456 53 317 1.0 3.0 0.00 0.00 0.00 45 1010.7
20260503003357 53 317 1.0 3.0 0.00 0.00 0.00 45 1010.6
20260503003256 53 317 1.0 3.0 0.00 0.00 0.00 44 1010.6
20260503003156 53 317 1.0 3.0 0.00 0.00 0.00 44 1010.5
20260503003056 53 318 1.0 3.0 0.00 0.00 0.00 45 1010.6
20260503002955 53 317 1.0 3.0 0.00 0.00 0.00 44 1010.5
20260503002858 53 317 1.0 3.0 0.00 0.00 0.00 45 1010.6
20260503002757 53 318 1.0 3.0 0.00 0.00 0.00 44 1010.6
20260503002657 53 318 1.0 3.0 0.00 0.00 0.00 44 1010.6
20260503002556 53 318 1.0 4.0 0.00 0.00 0.00 44 1010.6
20260503002456 53 318 1.0 4.0 0.00 0.00 0.00 45 1010.6
20260503002356 53 338 1.0 4.0 0.00 0.00 0.00 44 1010.6
20260503002258 53 338 1.0 4.0 0.00 0.00 0.00 44 1010.6
20260503002157 54 338 1.0 4.0 0.00 0.00 0.00 44 1010.6
20260503002057 54 338 1.0 4.0 0.00 0.00 0.00 43 1010.6
20260503002011 54 338 1.0 4.0 0.00 0.00 0.00 43 1010.6
20260503001756 54 340 1.0 4.0 0.00 0.00 0.00 43 1010.6
20260503001657 54 336 1.0 4.0 0.00 0.00 0.00 43 1010.5
20260503001556 54 329 1.0 3.0 0.00 0.00 0.00 43 1010.5
20260503001457 54 329 1.0 4.0 0.00 0.00 0.00 43 1010.6
20260503001356 54 329 1.0 4.0 0.00 0.00 0.00 43 1010.6
20260503001327 54 329 1.0 4.0 0.00 0.00 0.00 43 1010.6
20260503000957 54 329 2.0 6.0 0.00 0.00 0.00 42 1010.6
20260503000856 54 319 2.0 6.0 0.00 0.00 0.00 42 1010.6
20260503000755 54 319 2.0 6.0 0.00 0.00 0.00 43 1010.5
20260503000658 54 319 2.0 6.0 0.00 0.00 0.00 43 1010.5
20260503000556 54 319 2.0 6.0 0.00 0.00 0.00 43 1010.5
20260503000455 54 342 2.0 6.0 0.00 0.00 0.00 42 1010.4
20260503000356 54 342 2.0 8.0 0.00 0.00 0.00 42 1010.4
20260503000256 54 322 2.0 8.0 0.00 0.00 0.00 42 1010.4
20260503000158 54 321 2.0 8.0 0.00 0.00 0.00 42 1010.4
20260503000055 54 323 2.0 8.0 0.00 0.00 0.00 42 1010.4
20260502235958 54 28 2.0 8.0 0.00 0.00 0.00 43 1010.4
20260502235855 54 300 2.0 8.0 0.00 0.00 0.00 43 1010.4
20260502235756 54 311 2.0 8.0 0.00 0.00 0.00 42 1010.4
20260502235656 54 284 3.0 8.0 0.00 0.00 0.00 42 1010.4
20260502235558 54 302 3.0 8.0 0.00 0.00 0.00 42 1010.5
20260502235456 54 313 3.0 8.0 0.00 0.00 0.00 42 1010.4
20260502235356 54 323 3.0 8.0 0.00 0.00 0.00 42 1010.4
20260502235255 54 323 3.0 8.0 0.00 0.00 0.00 42 1010.4
20260502235157 54 321 2.0 8.0 0.00 0.00 0.00 42 1010.4
20260502235057 54 307 2.0 8.0 0.00 0.00 0.00 42 1010.4
20260502234957 54 300 2.0 8.0 0.00 0.00 0.00 42 1010.4
20260502234856 54 349 3.0 8.0 0.00 0.00 0.00 42 1010.4
20260502234757 54 325 3.0 8.0 0.00 0.00 0.00 42 1010.4
20260502234714 54 308 2.0 8.0 0.00 0.00 0.00 42 1010.5
20260502234456 55 311 2.0 5.0 0.00 0.00 0.00 43 1010.5
20260502234411 54 301 2.0 5.0 0.00 0.00 0.00 43 1010.5
20260502234211 55 314 1.0 5.0 0.00 0.00 0.00 42 1010.5
20260502234012 55 338 1.0 5.0 0.00 0.00 0.00 42 1010.5
20260502233756 55 329 1.0 4.0 0.00 0.00 0.00 42 1010.4
20260502233657 55 319 1.0 3.0 0.00 0.00 0.00 43 1010.4
20260502233556 55 323 1.0 3.0 0.00 0.00 0.00 43 1010.4
20260502233458 55 323 1.0 6.0 0.00 0.00 0.00 42 1010.4
20260502233414 55 323 1.0 6.0 0.00 0.00 0.00 43 1010.4
20260502233156 55 323 1.0 6.0 0.00 0.00 0.00 43 1010.3
20260502233128 55 323 1.0 6.0 0.00 0.00 0.00 43 1010.4
20260502232810 55 322 1.0 6.0 0.00 0.00 0.00 41 1010.3
20260502232555 55 271 1.0 6.0 0.00 0.00 0.00 41 1010.3
20260502232457 55 288 1.0 6.0 0.00 0.00 0.00 41 1010.3
20260502232412 55 312 2.0 5.0 0.00 0.00 0.00 43 1010.3
20260502232157 55 313 2.0 5.0 0.00 0.00 0.00 41 1010.3